Kamloops,

6:20 AM PDT on May 24, 2017 (GMT -0700)
Kamloops

Weather History for CYKA - July, 2013

Change the Weather History Date:

Thursday, July 18, 2013

  Actual Average Record
Temperature  
Mean Temperature 74 °F -  
Max Temperature 89 °F 82 °F 96 °F (1998)
Min Temperature 59 °F 55 °F 48 °F (1996)
Cooling Degree Days 9    
Growing Degree Days 24 (Base 50)    
Moisture  
Dew Point 53 °F    
Average Humidity 55    
Maximum Humidity 88    
Minimum Humidity 14    
Precipitation  
Precipitation 0.00 in 0.04 in - ()
Sea Level Pressure  
Sea Level Pressure 30.12 in    
Wind  
Wind Speed 3 mph ()    
Max Wind Speed 10 mph    
Max Gust Speed -    
Averages and records for this station are not official NWS values.
T = Trace of Precipitation, MM = Missing Value Source: Averaged Metar Reports

Daily Weather History Graph

Daily Weather History Graph

Search for Another Location

Airport or City:

Trip Planner

Search our weather history database for the weather conditions in past years. The results will help you decide how hot, cold, wet, or windy it might be!

Date:

Astronomy

Jul. 18, 2013 Rise Set
Actual Time 5:10 AM PDT 9:05 PM PDT
Civil Twilight 4:27 AM PDT 9:47 PM PDT
Nautical Twilight 3:28 AM PDT 10:46 PM PDT
Astronomical Twilight 1:39 AM PDT 12:29 AM PDT
Moon 5:04 PM PDT (7/18) 1:11 AM PDT (7/18)
Length of Visible Light 17h 19m
Length of Day
15h 55m
Waxing Gibbous, 78% of the Moon is Illuminated
Jul 18
Waxing Gibbous
Jul 22
Full
Jul 29
Last Quarter
Aug 6
New
Aug 14
First Quarter

Hourly Weather History & Observations

Time (PDT) Temp. Dew Point Humidity Pressure Visibility Wind Dir Wind Speed Gust Speed Precip Events Conditions
12:00 AM 64.4 °F 57.2 °F 77% 30.17 in 40.0 mi East 5.8 mph - N/A   Mostly Cloudy
1:00 AM 62.6 °F 57.2 °F 82% 30.18 in 40.0 mi NNE 5.8 mph - N/A   Mostly Cloudy
2:00 AM 62.6 °F 57.2 °F 82% 30.19 in 40.0 mi Variable 2.3 mph - N/A   Mostly Cloudy
3:00 AM 60.8 °F 57.2 °F 88% 30.19 in 40.0 mi Calm Calm - N/A   Mostly Cloudy
4:00 AM 60.8 °F 57.2 °F 88% 30.19 in 40.0 mi Variable 2.3 mph - N/A   Mostly Cloudy
5:00 AM 61 °F 57 °F 83% 30.20 in 37 mi SE 2.3 mph - -   Mostly Cloudy
5:00 AM 60.8 °F 57.2 °F 88% 30.20 in 40.0 mi SSE 2.3 mph - N/A   Mostly Cloudy
6:00 AM 59.0 °F 55.4 °F 88% 30.21 in 40.0 mi Calm Calm - N/A   Mostly Cloudy
7:00 AM 62.6 °F 57.2 °F 82% 30.22 in 40.0 mi SE 2.3 mph - N/A   Mostly Cloudy
8:00 AM 64.4 °F 57.2 °F 77% 30.23 in 30.0 mi NE 2.3 mph - N/A   Mostly Cloudy
9:00 AM 68.0 °F 57.2 °F 68% 30.22 in 30.0 mi Variable 2.3 mph - N/A   Scattered Clouds
10:00 AM 69.8 °F 57.2 °F 64% 30.20 in 40.0 mi South 4.6 mph - N/A   Partly Cloudy
11:00 AM 71.6 °F 57.2 °F 60% 30.17 in 40.0 mi SSW 3.5 mph - N/A   Partly Cloudy
12:00 PM 73.4 °F 55.4 °F 53% 30.16 in 40.0 mi West 4.6 mph - N/A   Scattered Clouds
1:00 PM 78.8 °F 53.6 °F 42% 30.13 in 40.0 mi SW 4.6 mph - N/A   Scattered Clouds
2:00 PM 84.2 °F 50.0 °F 30% 30.10 in 40.0 mi SSW 3.5 mph - N/A   Partly Cloudy
3:00 PM 87.8 °F 48.2 °F 25% 30.07 in 40.0 mi SW 3.5 mph - N/A   Partly Cloudy
4:00 PM 87.8 °F 48.2 °F 25% 30.05 in 40.0 mi SSE 4.6 mph - N/A   Partly Cloudy
5:00 PM 89 °F 47 °F 14% 30.04 in 37 mi South 4.6 mph - -   Scattered Clouds
5:00 PM 89.6 °F 46.4 °F 22% 30.03 in 40.0 mi SSW 4.6 mph - N/A   Scattered Clouds
6:00 PM 87.8 °F 46.4 °F 24% 30.02 in 40.0 mi West 5.8 mph - N/A   Partly Cloudy
7:00 PM 87.8 °F 44.6 °F 22% 30.01 in 40.0 mi Variable 2.3 mph - N/A   Partly Cloudy
8:00 PM 84.2 °F 48.2 °F 29% 30.01 in 40.0 mi ESE 3.5 mph - N/A   Partly Cloudy
9:00 PM 78.8 °F 53.6 °F 42% 30.01 in 40.0 mi ESE 6.9 mph - N/A   Partly Cloudy
10:00 PM 77.0 °F 53.6 °F 44% 30.04 in 40.0 mi East 10.4 mph - N/A   Partly Cloudy
11:00 PM 73 °F 54 °F 40% 30.04 in 37 mi ESE 5.8 mph - -   Scattered Clouds
11:00 PM 73.4 °F 53.6 °F 50% 30.04 in 40.0 mi ESE 5.8 mph - N/A   Partly Cloudy